Regional Weather Roundup
Issued by NWS

Home | Current Version | Previous Version | Graphics & Text | Print | Product List | Glossary On
Versions: 1 2 3 4 5 6 7 8 9 10 11 12 13 14 15 16 17 18 19 20 21 22 23 24 25 26 27 28 29 30 31 32 33 34 35 36 37 38 39 40 41 42 43 44 45 46 47 48 49 50
000
ASUS43 KBIS 211302
RWRND

NORTH DAKOTA REGIONAL WEATHER ROUNDUP
NATIONAL WEATHER SERVICE BISMARCK ND
700 AM CST WED FEB 21 2018

NOTE: "FAIR" INDICATES FEW OR NO CLOUDS BELOW 12,000 FEET WITH NO
SIGNIFICANT WEATHER AND/OR OBSTRUCTIONS TO VISIBILITY.


NDZ001>003-009>011-017-211400-
NORTHWEST NORTH DAKOTA

CITY           SKY/WX    TMP DP  RH WIND       PRES   REMARKS
WILLISTON      CLEAR     -8 -14  74 SW8       30.29S WCI -24
MINOT          CLEAR     -3 -13  62 SW9       30.27R WCI -19
MINOT AFB      CLEAR     -4 -13  65 W14       30.26R WCI -24
$$

NDZ018>021-031>035-040>046-211400-
SOUTHWEST NORTH DAKOTA

CITY           SKY/WX    TMP DP  RH WIND       PRES   REMARKS
BISMARCK       CLEAR    -10 -16  74 SW3       30.38R
DICKINSON      CLEAR     -5 -14  65 SW12      30.25R WCI -23
GARRISON         N/A     -9 -16  71 W9        30.30R WCI -26
HETTINGER ARPT CLEAR    -16 -20  82 W3        30.30S
$$

NDZ004>008-012>016-024-026-027-054-211400-
NORTHEAST NORTH DAKOTA

CITY           SKY/WX    TMP DP  RH WIND       PRES   REMARKS
GRAND FORKS    FAIR      -3 -10  72 SW8       30.39R WCI -18
GRND FRKS AFB  CLEAR     -2  -9  71 SW8       30.35R WCI -17
DEVILS LAKE    FAIR      -7 -13  75 SW15      30.33R WCI -28
$$

NDZ022-023-025-028>030-036>039-047>053-211400-
SOUTHEAST NORTH DAKOTA

CITY           SKY/WX    TMP DP  RH WIND       PRES   REMARKS
FARGO          FAIR      -4 -11  72 S12       30.44R WCI -22
JAMESTOWN      CLEAR     -4 -11  72 W6        30.36R WCI -16
$$





USA.gov is the U.S. government's official web portal to all federal, state and local government web resources and services.